Voltar ao catálogo

SL-12 R/B(2)

AtivoGEO
NORAD 22044·ROCKET BODY·🇷🇺 Russia

Lançado Jul 14, 1992 de Baikonur Cosmodrome

Loading…

TLE

AtualizadoSource: Space-Track

Época: Aug 29, 2026, 18:12 UTC

1 22044U 92043D   26241.75835155 -.00000072  00000-0  00000+0 0  9993
2 22044  14.5878 346.0331 0024701 201.6892 106.1559  0.97830389120275

Acompanhe SL-12 R/B(2) em tempo real com AllMySat

Download on the App Store